sat.trackr.live / text

‹ back to catalog

STARLINK-11246 [DTC]

NORAD 60932 · 2024-155J

PAYLOAD ACTIVE UNKNOWN

§ Identity

Operator
Country
US
Launch date
2024-08-31
Launch site
AFWTR
Launch vehicle
Mass (kg)
RCS (m²)

Purposes: comms

External: N2YO · Heavens-Above · Gunter

§ Orbital elements

Epoch: 2026-05-24T21:24:28.609920Z

Period
91.74 min
Inclination
53.1593°
Eccentricity
0.0001072
Mean motion
15.69708607 rev/d
Perigee alt
359.0 km
Apogee alt
360.5 km
Semi-major
6,737.9 km
B*
7.6358e-6
RAAN
325.3903°
Arg perigee
101.1756°
Mean anomaly
258.9383°
Rev number
10,037

§ Raw data

STARLINK-11246 [DTC]1 60932U 24155J   26144.89199780  .00000337  00000+0  76358-5 0  99912 60932  53.1593 325.3903 0001072 101.1756 258.9383 15.69708607100372

JSON: /api/v1/satellites/60932 · /tle

For live sub-satellite position, see the globe view (requires WebGL).

§ Visibility from observer

Set your observer location to see the next 7 days of passes ≥ 10°. The values pass through the URL so the page stays shareable.

No JS? Fill the form by hand. The geolocation button needs JavaScript.